KC9DRE Weather Reports


time (UTC)temp
C
wind
direction
speed
KPH
gust
KPH
rain 1hr
cm
rain 24hr
cm
rain mn
cm
humidity
%
barometer
mb
20260906095536 22 275 0.0 0.0 0.00 0.00 0.00 97 1013.7
20260906095032 21 287 0.0 1.6 0.00 0.00 0.00 97 1013.7
20260906094530 21 276 0.0 0.0 0.00 0.00 0.00 97 1013.6
20260906094026 21 263 0.0 0.0 0.00 0.00 0.00 97 1013.7
20260906093522 21 270 0.0 0.0 0.00 0.00 0.00 97 1013.5
20260906093017 21 261 0.0 0.0 0.00 0.00 0.00 97 1013.5
20260906092516 21 269 0.0 0.0 0.00 0.00 0.00 97 1013.4
20260906092012 21 273 0.0 1.6 0.00 0.00 0.00 97 1013.6
20260906091508 21 266 0.0 0.0 0.00 0.00 0.00 97 1013.3
20260906091004 21 278 0.0 0.0 0.00 0.00 0.00 97 1013.4
20260906090459 21 265 0.0 0.0 0.00 0.00 0.00 97 1013.3
20260906085959 21 275 0.0 0.0 0.00 0.00 0.00 96 1013.4
20260906085458 21 278 0.0 0.0 0.00 0.00 0.00 96 1013.5
20260906084957 21 249 1.6 3.2 0.00 0.00 0.00 96 1013.3
20260906084452 21 273 0.0 0.0 0.00 0.00 0.00 96 1013.3
20260906083951 22 275 0.0 0.0 0.00 0.00 0.00 96 1013.3
20260906083447 22 282 0.0 0.0 0.00 0.00 0.00 96 1013.3
20260906082946 22 265 0.0 1.6 0.00 0.00 0.00 96 1013.4
20260906082442 22 273 0.0 0.0 0.00 0.00 0.00 96 1013.2
20260906081937 22 272 0.0 0.0 0.00 0.00 0.00 97 1013.2
20260906081432 22 276 0.0 0.0 0.00 0.00 0.00 97 1013.3
20260906080929 22 265 0.0 1.6 0.00 0.00 0.00 97 1013.3
20260906080425 22 353 1.6 1.6 0.00 0.00 0.00 98 1013.2
20260906075925 22 358 1.6 1.6 0.00 0.00 0.00 98 1013.2
20260906075420 22 288 0.0 0.0 0.00 0.00 0.00 98 1013.5
20260906074915 22 262 0.0 0.0 0.00 0.00 0.00 98 1013.4
20260906074414 22 269 0.0 0.0 0.00 0.00 0.00 98 1013.1
20260906073914 22 265 0.0 0.0 0.00 0.00 0.00 98 1013.2
20260906073408 22 244 0.0 3.2 0.00 0.00 0.00 98 1013.0
20260906072905 22 270 0.0 0.0 0.00 0.00 0.00 98 1013.1
20260906072400 22 270 0.0 0.0 0.00 0.00 0.00 98 1012.9
20260906071856 22 268 0.0 0.0 0.00 0.00 0.00 98 1013.2
20260906071351 22 270 0.0 0.0 0.00 0.00 0.00 98 1013.3
20260906070847 22 263 0.0 0.0 0.00 0.00 0.00 98 1013.1
20260906070343 22 263 0.0 0.0 0.00 0.00 0.00 98 1013.3
20260906065838 22 260 0.0 0.0 0.00 0.00 0.00 98 1013.3
20260906065332 22 260 0.0 0.0 0.00 0.00 0.00 98 1013.4
20260906064828 22 269 0.0 1.6 0.00 0.00 0.00 98 1013.3
20260906064324 22 276 0.0 0.0 0.00 0.00 0.00 98 1013.2
20260906063818 22 281 0.0 0.0 0.00 0.00 0.00 98 1013.3
20260906063314 22 280 0.0 0.0 0.00 0.00 0.00 98 1013.7
20260906062809 22 280 0.0 0.0 0.00 0.00 0.00 98 1013.6
20260906062308 22 263 0.0 0.0 0.00 0.00 0.00 98 1013.5
20260906061804 22 270 0.0 0.0 0.00 0.00 0.00 98 1013.6
20260906061301 22 266 0.0 0.0 0.00 0.00 0.00 98 1013.7
20260906060755 22 264 0.0 0.0 0.00 0.00 0.00 98 1013.6
20260906060253 22 271 0.0 0.0 0.00 0.00 0.00 98 1013.4
20260906055749 22 273 0.0 0.0 0.00 0.00 0.00 98 1013.5
20260906055243 22 251 0.0 0.0 0.00 0.00 0.00 98 1013.7
20260906054739 22 270 0.0 0.0 0.00 0.00 0.00 98 1013.8
20260906054234 22 270 0.0 0.0 0.00 0.00 0.00 98 1013.5
20260906053730 22 273 0.0 0.0 0.00 0.00 0.00 98 1013.5
20260906053226 22 273 0.0 0.0 0.00 0.00 0.00 98 1013.8
20260906052720 22 273 0.0 0.0 0.00 0.00 0.00 98 1013.6
20260906052217 22 273 0.0 0.0 0.00 0.00 0.00 97 1013.5
20260906051714 22 273 0.0 0.0 0.00 0.00 0.00 97 1013.6
20260906051213 22 273 0.0 0.0 0.00 0.00 0.00 98 1013.5
20260906050708 22 273 0.0 0.0 0.00 0.00 0.00 98 1013.6
20260906050203 22 273 0.0 0.0 0.00 0.00 0.00 97 1013.6
20260906045701 22 273 0.0 0.0 0.00 0.00 0.00 97 1013.5
20260906045157 22 273 0.0 0.0 0.00 0.00 0.00 97 1013.3
20260906044653 22 273 0.0 0.0 0.00 0.00 0.00 97 1013.4
20260906044148 22 273 0.0 0.0 0.00 0.00 0.00 97 1013.3
20260906043644 22 273 0.0 0.0 0.00 0.00 0.00 97 1013.3
20260906043139 22 273 0.0 0.0 0.00 0.00 0.00 97 1013.2
20260906042640 22 280 0.0 0.0 0.00 0.00 0.00 97 1013.3
20260906042139 22 294 0.0 0.0 0.00 0.00 0.00 97 1013.2
20260906041635 22 267 0.0 0.0 0.00 0.00 0.00 97 1013.1
20260906041130 22 267 0.0 0.0 0.00 0.00 0.00 97 1013.1
20260906040625 22 267 0.0 0.0 0.00 0.00 0.00 97 1013.0
20260906040120 23 267 0.0 0.0 0.00 0.00 0.00 97 1013.0
20260906035615 23 266 0.0 0.0 0.00 0.00 0.00 97 1013.1
20260906035112 23 266 0.0 0.0 0.00 0.00 0.00 96 1013.0
20260906034611 23 266 0.0 0.0 0.00 0.00 0.00 96 1013.1
20260906034106 23 266 0.0 0.0 0.00 0.00 0.00 96 1012.9
20260906033602 23 266 0.0 0.0 0.00 0.00 0.00 96 1013.0
20260906033057 23 266 0.0 0.0 0.00 0.00 0.00 96 1013.0
20260906032554 23 266 0.0 0.0 0.00 0.00 0.00 96 1012.9
20260906032053 23 266 0.0 0.0 0.00 0.00 0.00 96 1012.8
20260906031549 23 266 0.0 0.0 0.00 0.00 0.00 96 1013.1
20260906031044 23 266 0.0 0.0 0.00 0.00 0.00 96 1013.1
20260906030543 23 266 0.0 0.0 0.00 0.00 0.00 96 1013.1
20260906030044 23 266 0.0 0.0 0.00 0.00 0.00 96 1012.9
20260906025543 23 266 0.0 0.0 0.00 0.00 0.00 96 1013.1
20260906025042 23 271 0.0 0.0 0.00 0.00 0.00 96 1013.0
20260906024538 23 269 0.0 0.0 0.00 0.00 0.00 96 1013.1
20260906024037 23 269 0.0 0.0 0.00 0.00 0.00 96 1012.9
20260906023533 23 269 0.0 0.0 0.00 0.00 0.00 96 1012.9
20260906023028 23 269 0.0 0.0 0.00 0.00 0.00 95 1013.1
20260906022523 23 269 0.0 0.0 0.00 0.00 0.00 95 1012.8
20260906022019 23 269 0.0 0.0 0.00 0.00 0.00 95 1012.7
20260906021514 23 269 0.0 0.0 0.00 0.00 0.00 95 1012.7
20260906021008 23 269 0.0 0.0 0.00 0.00 0.00 95 1012.8
20260906020507 23 269 0.0 0.0 0.00 0.00 0.00 95 1012.9
20260906020008 24 269 0.0 0.0 0.00 0.00 0.00 95 1012.7
20260906015506 24 269 0.0 0.0 0.00 0.00 0.00 94 1012.8
20260906015001 24 269 0.0 0.0 0.00 0.00 0.00 94 1012.4
20260906014501 24 269 0.0 0.0 0.00 0.00 0.00 94 1012.6
20260906013957 24 274 0.0 0.0 0.00 0.00 0.00 94 1012.6
20260906013452 25 276 0.0 0.0 0.00 0.00 0.00 93 1012.3
20260906012949 25 273 0.0 0.0 0.00 0.00 0.00 93 1012.2
20260906012448 25 275 0.0 0.0 0.00 0.00 0.00 93 1012.4
20260906011948 25 270 0.0 0.0 0.00 0.00 0.00 92 1012.3
20260906011443 25 270 0.0 0.0 0.00 0.00 0.00 92 1012.0
20260906010938 25 270 0.0 0.0 0.00 0.00 0.00 91 1011.8
20260906010434 25 271 0.0 0.0 0.00 0.00 0.00 91 1011.9
20260906005930 25 273 0.0 0.0 0.00 0.00 0.00 91 1011.9
20260906005430 25 274 0.0 0.0 0.00 0.00 0.00 90 1011.9
20260906004928 26 269 0.0 0.0 0.00 0.00 0.00 89 1011.8
20260906004422 26 269 0.0 0.0 0.00 0.00 0.00 88 1012.0
20260906003918 26 270 0.0 0.0 0.00 0.00 0.00 88 1011.9
20260906003413 26 270 0.0 0.0 0.00 0.00 0.00 87 1012.1
20260906002909 26 270 0.0 0.0 0.00 0.00 0.00 86 1012.1
20260906002408 27 271 0.0 0.0 0.00 0.00 0.00 86 1012.1
20260906001904 27 277 0.0 0.0 0.00 0.00 0.00 84 1012.3
20260906001359 27 267 0.0 0.0 0.00 0.00 0.00 83 1012.5
20260906000859 28 264 0.0 0.0 0.00 0.00 0.00 82 1012.5
20260906000400 28 272 0.0 1.6 0.00 0.00 0.00 82 1012.7
20260905235855 28 267 0.0 0.0 0.00 0.00 0.00 82 1012.7
20260905235349 28 268 0.0 0.0 0.00 0.00 0.00 81 1012.6
20260905234844 28 266 0.0 0.0 0.00 0.00 0.00 81 1012.5
20260905234339 28 266 0.0 0.0 0.00 0.00 0.00 81 1012.5
20260905233834 28 266 0.0 0.0 0.00 0.00 0.00 80 1012.4
20260905233329 28 266 0.0 0.0 0.00 0.00 0.00 79 1012.5
20260905232828 28 266 0.0 0.0 0.00 0.00 0.00 79 1012.6
20260905232325 28 266 0.0 0.0 0.00 0.00 0.00 77 1012.5
20260905231820 29 268 0.0 0.0 0.00 0.00 0.00 78 1012.5
20260905231315 29 268 0.0 0.0 0.00 0.00 0.00 77 1012.4
20260905230812 30 268 0.0 0.0 0.00 0.00 0.00 76 1012.2
20260905230309 30 268 0.0 0.0 0.00 0.00 0.00 75 1012.2
20260905225809 30 267 0.0 0.0 0.00 0.00 0.00 74 1012.2
20260905225306 30 267 0.0 0.0 0.00 0.00 0.00 73 1012.1
20260905224804 30 267 0.0 0.0 0.00 0.00 0.00 71 1012.3
20260905224259 31 267 0.0 0.0 0.00 0.00 0.00 70 1012.2
20260905223755 31 267 0.0 0.0 0.00 0.00 0.00 69 1012.1
20260905223252 32 269 0.0 0.0 0.00 0.00 0.00 68 1012.0
20260905222747 32 270 0.0 0.0 0.00 0.00 0.00 65 1011.9
20260905222246 33 296 0.0 1.6 0.00 0.00 0.00 62 1011.9
20260905221742 34 274 0.0 0.0 0.00 0.00 0.00 59 1011.9
20260905221239 35 307 0.0 1.6 0.00 0.00 0.00 56 1011.9
20260905220734 35 266 0.0 0.0 0.00 0.00 0.00 52 1012.0
20260905220230 35 244 1.6 1.6 0.00 0.00 0.00 52 1011.9
20260905215729 35 251 1.6 1.6 0.00 0.00 0.00 50 1011.8
20260905215226 35 266 0.0 1.6 0.00 0.00 0.00 52 1011.9
20260905214721 36 258 0.0 1.6 0.00 0.00 0.00 50 1012.0
20260905214216 35 268 0.0 3.2 0.00 0.00 0.00 51 1012.2
20260905213712 36 229 1.6 9.7 0.00 0.00 0.00 50 1012.2
20260905213208 36 307 1.6 3.2 0.00 0.00 0.00 49 1012.1
20260905212703 36 267 0.0 1.6 0.00 0.00 0.00 50 1012.3
20260905212202 36 251 1.6 3.2 0.00 0.00 0.00 49 1012.1
20260905211656 36 264 0.0 3.2 0.00 0.00 0.00 49 1012.3
20260905211152 36 270 3.2 3.2 0.00 0.00 0.00 49 1012.2
20260905210649 36 271 0.0 4.8 0.00 0.00 0.00 49 1012.3
20260905210148 36 266 3.2 3.2 0.00 0.00 0.00 48 1012.2
20260905205647 36 292 1.6 1.6 0.00 0.00 0.00 49 1012.3
20260905205141 36 264 1.6 4.8 0.00 0.00 0.00 48 1012.4
20260905204640 37 264 3.2 4.8 0.00 0.00 0.00 47 1012.5
20260905204137 36 274 0.0 1.6 0.00 0.00 0.00 49 1012.3
20260905203637 36 287 1.6 1.6 0.00 0.00 0.00 47 1012.5
20260905203132 36 252 0.0 9.7 0.00 0.00 0.00 48 1012.6
20260905202628 36 295 1.6 3.2 0.00 0.00 0.00 48 1012.5
20260905202123 36 274 1.6 3.2 0.00 0.00 0.00 49 1012.6
20260905201618 36 267 1.6 4.8 0.00 0.00 0.00 47 1012.8
20260905201118 36 290 4.8 6.4 0.00 0.00 0.00 49 1012.7
20260905200614 37 309 1.6 3.2 0.00 0.00 0.00 47 1012.7
20260905200109 37 256 1.6 3.2 0.00 0.00 0.00 46 1012.7
20260905195602 36 267 0.0 1.6 0.00 0.00 0.00 46 1012.8
20260905195057 37 272 3.2 4.8 0.00 0.00 0.00 46 1012.9
20260905194557 37 270 1.6 4.8 0.00 0.00 0.00 48 1013.0
20260905194056 36 272 1.6 3.2 0.00 0.00 0.00 49 1013.0
20260905193551 36 269 0.0 3.2 0.00 0.00 0.00 48 1012.9
20260905193046 36 253 0.0 1.6 0.00 0.00 0.00 49 1013.1
20260905192542 37 319 1.6 3.2 0.00 0.00 0.00 48 1013.1
20260905192038 36 184 1.6 1.6 0.00 0.00 0.00 47 1013.2
20260905191536 36 263 1.6 3.2 0.00 0.00 0.00 50 1013.3
20260905191035 36 265 1.6 3.2 0.00 0.00 0.00 48 1013.4
20260905190534 37 247 1.6 3.2 0.00 0.00 0.00 46 1013.6
20260905190033 36 264 0.0 3.2 0.00 0.00 0.00 50 1013.5
20260905185533 35 262 1.6 6.4 0.00 0.00 0.00 49 1013.7
20260905185027 36 355 3.2 6.4 0.00 0.00 0.00 48 1013.7
20260905184526 36 281 1.6 4.8 0.00 0.00 0.00 46 1013.7
20260905184025 37 271 1.6 1.6 0.00 0.00 0.00 48 1013.7
20260905183526 36 260 1.6 1.6 0.00 0.00 0.00 46 1013.8
20260905183021 36 268 1.6 3.2 0.00 0.00 0.00 46 1013.7
20260905182521 36 264 0.0 3.2 0.00 0.00 0.00 47 1013.9
20260905182021 36 242 1.6 1.6 0.00 0.00 0.00 45 1014.1
20260905181516 36 259 3.2 4.8 0.00 0.00 0.00 47 1014.1
20260905181015 36 263 0.0 1.6 0.00 0.00 0.00 47 1014.1
20260905180510 35 262 1.6 3.2 0.00 0.00 0.00 51 1014.0
20260905180005 35 265 0.0 3.2 0.00 0.00 0.00 50 1014.2
20260905175504 35 275 3.2 3.2 0.00 0.00 0.00 48 1014.1
20260905175000 35 283 1.6 4.8 0.00 0.00 0.00 48 1014.3
20260905174455 35 282 3.2 3.2 0.00 0.00 0.00 48 1014.5
20260905173951 35 288 3.2 3.2 0.00 0.00 0.00 47 1014.5
20260905173447 35 236 0.0 3.2 0.00 0.00 0.00 50 1014.4
20260905172942 35 262 3.2 4.8 0.00 0.00 0.00 51 1014.5
20260905172440 33 257 0.0 3.2 0.00 0.00 0.00 52 1014.4
20260905171936 34 100 1.6 6.4 0.00 0.00 0.00 49 1014.4
20260905171433 35 343 0.0 3.2 0.00 0.00 0.00 53 1014.5
20260905170929 34 279 1.6 3.2 0.00 0.00 0.00 49 1014.3
20260905170424 33 210 1.6 3.2 0.00 0.00 0.00 52 1014.6
20260905165924 34 118 3.2 3.2 0.00 0.00 0.00 48 1014.7
20260905165419 33 282 3.2 4.8 0.00 0.00 0.00 48 1014.9
20260905164914 33 293 1.6 3.2 0.00 0.00 0.00 48 1014.9
20260905164408 33 265 1.6 3.2 0.00 0.00 0.00 47 1015.0
20260905163903 34 320 1.6 3.2 0.00 0.00 0.00 47 1014.8
20260905163400 33 271 0.0 3.2 0.00 0.00 0.00 50 1014.9
20260905162856 32 256 3.2 6.4 0.00 0.00 0.00 52 1015.1
20260905162355 32 43 3.2 3.2 0.00 0.00 0.00 52 1015.2
20260905161850 32 358 0.0 3.2 0.00 0.00 0.00 50 1015.3
20260905161350 32 235 1.6 3.2 0.00 0.00 0.00 52 1015.3
20260905160848 33 10 1.6 6.4 0.00 0.00 0.00 48 1015.3
20260905160343 32 122 0.0 4.8 0.00 0.00 0.00 49 1015.2
20260905155837 32 287 4.8 6.4 0.00 0.00 0.00 51 1015.3
20260905155337 32 273 3.2 4.8 0.00 0.00 0.00 51 1015.2
20260905154836 31 185 4.8 4.8 0.00 0.00 0.00 51 1015.2
20260905154332 31 306 3.2 3.2 0.00 0.00 0.00 55 1015.2
20260905153827 31 17 1.6 3.2 0.00 0.00 0.00 54 1015.3
20260905153324 31 307 3.2 4.8 0.00 0.00 0.00 54 1015.4
20260905152823 31 350 1.6 3.2 0.00 0.00 0.00 54 1015.4
20260905152322 31 268 3.2 3.2 0.00 0.00 0.00 56 1015.5
20260905151818 31 52 1.6 3.2 0.00 0.00 0.00 56 1015.5
20260905151313 30 351 0.0 1.6 0.00 0.00 0.00 57 1015.7
20260905150813 30 272 0.0 3.2 0.00 0.00 0.00 57 1015.7
20260905150313 30 143 3.2 9.7 0.00 0.00 0.00 57 1015.7
20260905145811 30 5 3.2 9.7 0.00 0.00 0.00 57 1015.7
20260905145310 30 244 1.6 6.4 0.00 0.00 0.00 61 1015.5
20260905144809 30 270 0.0 4.8 0.00 0.00 0.00 61 1015.6
20260905144305 29 10 1.6 3.2 0.00 0.00 0.00 62 1015.7
20260905143804 28 79 4.8 11.3 0.00 0.00 0.00 61 1015.7
20260905143258 28 49 8.0 11.3 0.00 0.00 0.00 61 1015.8
20260905142757 28 171 4.8 11.3 0.00 0.00 0.00 64 1015.9
20260905142251 28 289 3.2 11.3 0.00 0.00 0.00 66 1015.8
20260905141748 28 114 9.7 12.9 0.00 0.00 0.00 66 1015.6
20260905141244 27 266 3.2 6.4 0.00 0.00 0.00 69 1015.9
20260905140739 27 96 1.6 11.3 0.00 0.00 0.00 70 1016.1
20260905140239 27 57 4.8 6.4 0.00 0.00 0.00 70 1016.1
20260905135737 27 165 4.8 9.7 0.00 0.00 0.00 71 1016.2
20260905135234 27 127 3.2 12.9 0.00 0.00 0.00 72 1015.9
20260905134733 27 196 3.2 4.8 0.00 0.00 0.00 71 1016.1
20260905134233 26 57 4.8 11.3 0.00 0.00 0.00 73 1016.2
20260905133728 26 100 3.2 16.1 0.00 0.00 0.00 74 1015.9
20260905133223 26 157 1.6 9.7 0.00 0.00 0.00 74 1016.2
20260905132722 26 103 1.6 11.3 0.00 0.00 0.00 75 1016.3
20260905132218 26 48 3.2 14.5 0.00 0.00 0.00 76 1016.7
20260905131712 26 65 3.2 16.1 0.00 0.00 0.00 78 1016.5
20260905131208 26 81 6.4 12.9 0.00 0.00 0.00 79 1016.5
20260905130702 25 61 4.8 11.3 0.00 0.00 0.00 82 1016.5
20260905130201 25 357 3.2 14.5 0.00 0.00 0.00 82 1016.5
20260905125655 25 128 4.8 12.9 0.00 0.00 0.00 84 1016.8
20260905125151 25 245 1.6 11.3 0.00 0.00 0.00 86 1016.4
20260905124648 25 322 1.6 6.4 0.00 0.00 0.00 92 1016.8
20260905124144 25 311 0.0 1.6 0.00 0.00 0.00 91 1015.7
20260905123638 25 264 0.0 0.0 0.00 0.00 0.00 90 1015.6
20260905123136 25 264 0.0 0.0 0.00 0.00 0.00 92 1015.6
20260905122635 25 261 0.0 0.0 0.00 0.00 0.00 94 1015.6
20260905122130 25 270 0.0 0.0 0.00 0.00 0.00 97 1015.4
20260905121625 23 260 0.0 0.0 0.00 0.00 0.00 98 1015.4
20260905121120 23 278 0.0 0.0 0.00 0.00 0.00 98 1015.0
20260905120619 22 316 0.0 1.6 0.00 0.00 0.00 98 1015.3
20260905120114 22 258 0.0 0.0 0.00 0.00 0.00 98 1015.2
20260905115613 22 267 0.0 1.6 0.00 0.00 0.00 98 1015.2
20260905115108 22 343 1.6 3.2 0.00 0.00 0.00 98 1015.2
20260905114608 21 264 0.0 0.0 0.00 0.00 0.00 98 1015.1
20260905114107 21 264 0.0 0.0 0.00 0.00 0.00 98 1015.0
20260905113602 21 264 0.0 0.0 0.00 0.00 0.00 98 1014.9
20260905113057 21 264 0.0 0.0 0.00 0.00 0.00 98 1014.9
20260905112552 21 264 0.0 0.0 0.00 0.00 0.00 98 1014.9
20260905112048 21 264 0.0 0.0 0.00 0.00 0.00 98 1014.7
20260905111543 21 264 0.0 0.0 0.00 0.00 0.00 98 1014.6
20260905111042 21 264 0.0 0.0 0.00 0.00 0.00 97 1014.4
20260905110541 21 264 0.0 0.0 0.00 0.00 0.00 97 1014.6
20260905110036 21 264 0.0 0.0 0.00 0.00 0.00 97 1014.4
20260905105536 21 264 0.0 0.0 0.00 0.00 0.00 97 1014.3
20260905105036 21 264 0.0 0.0 0.00 0.00 0.00 97 1014.3
20260905104532 21 264 0.0 0.0 0.00 0.00 0.00 97 1014.0
20260905104031 21 264 0.0 0.0 0.00 0.00 0.00 97 1014.0
20260905103527 21 264 0.0 0.0 0.00 0.00 0.00 97 1014.1
20260905103023 21 264 0.0 0.0 0.00 0.00 0.00 97 1014.2
20260905102518 21 264 0.0 0.0 0.00 0.00 0.00 97 1014.3
20260905102015 21 264 0.0 0.0 0.00 0.00 0.00 97 1014.1
20260905101513 22 264 0.0 0.0 0.00 0.00 0.00 97 1014.2
20260905101011 22 263 0.0 0.0 0.00 0.00 0.00 97 1014.2
20260905100508 22 264 0.0 0.0 0.00 0.00 0.00 96 1014.3